CW7186 Weather Reports


time (UTC)temp
F
wind
direction
speed
knots
gust
knots
rain 1hr
in
rain 24hr
in
rain mn
in
humidity
%
barometer
mb
20260504194601 74 199 1.7 12.2 0.00 0.00 0.00 32 1009.2
20260504193056 73 260 5.2 10.4 0.00 0.00 0.00 31 1009.4
20260504191612 72 0 3.5 13.9 0.00 0.00 0.00 32 1009.6
20260504190051 73 294 4.3 13.0 0.00 0.00 0.00 32 1009.8
20260504184552 72 286 5.2 13.0 0.00 0.00 0.00 31 1010.1
20260504183053 72 243 7.0 16.5 0.00 0.00 0.00 31 1010.3
20260504181600 72 185 2.6 12.2 0.00 0.00 0.00 32 1010.6
20260504180052 72 245 3.5 10.4 0.00 0.00 0.00 33 1010.8
20260504174554 71 277 4.3 12.2 0.00 0.00 0.00 34 1011.1
20260504173053 70 296 5.2 13.0 0.00 0.00 0.00 34 1011.2
20260504171555 70 300 3.5 13.0 0.00 0.00 0.00 34 1011.4
20260504090107 46 186 0.9 4.3 0.00 0.00 0.00 67 1014.0
20260504081601 47 210 0.9 4.3 0.00 0.00 0.00 65 1013.9
20260504044609 48 0 0.0 0.9 0.00 0.00 0.00 58 1013.4
20260504043056 48 0 0.0 2.6 0.00 0.00 0.00 56 1013.2
20260504041554 48 0 0.0 0.9 0.00 0.00 0.00 57 1013.0
20260504040115 49 0 0.0 2.6 0.00 0.00 0.00 56 1013.1
20260504034607 49 0 0.0 2.6 0.00 0.00 0.00 54 1012.9
20260504033056 50 236 0.0 1.7 0.00 0.00 0.00 56 1012.9
20260504031553 51 0 0.0 2.6 0.00 0.00 0.00 52 1012.8
20260504030052 50 266 0.0 2.6 0.00 0.00 0.00 52 1012.8
20260504024558 51 0 0.0 1.7 0.00 0.00 0.00 52 1012.7
20260504023055 51 257 0.0 1.7 0.00 0.00 0.00 49 1012.6
20260504021551 52 0 0.0 2.6 0.00 0.00 0.00 50 1012.5
20260504020052 52 267 0.0 3.5 0.00 0.00 0.00 48 1012.5
20260504014556 52 0 0.0 0.0 0.00 0.00 0.00 52 1012.5
20260504013108 53 0 0.0 0.0 0.00 0.00 0.00 44 1012.3
20260504011557 54 0 0.0 2.6 0.00 0.00 0.00 44 1012.2
20260504010101 55 0 0.0 2.6 0.00 0.00 0.00 42 1012.0
20260504004608 56 0 0.0 3.5 0.00 0.00 0.00 38 1011.9
20260504003054 57 279 0.9 2.6 0.00 0.00 0.00 36 1011.6
20260504001601 58 273 1.7 7.0 0.00 0.00 0.00 35 1011.6
20260504000100 58 259 1.7 6.1 0.00 0.00 0.00 34 1011.5
20260503234553 59 250 0.9 11.3 0.00 0.00 0.00 34 1011.3
20260503233056 60 331 2.6 10.4 0.00 0.00 0.00 32 1011.1
20260503231553 60 275 1.7 11.3 0.00 0.00 0.00 31 1011.0
20260503230056 61 297 3.5 12.2 0.00 0.00 0.00 30 1011.0
20260503224553 61 302 1.7 12.2 0.00 0.00 0.00 30 1010.9
20260503223054 61 340 5.2 13.0 0.00 0.00 0.00 29 1010.9
20260503221553 62 344 3.5 10.4 0.00 0.00 0.00 30 1011.0
20260503220118 61 355 1.7 13.0 0.00 0.00 0.00 31 1011.1
20260503214552 61 300 4.3 12.2 0.00 0.00 0.00 30 1011.1
20260503213057 60 292 3.5 14.8 0.00 0.00 0.00 30 1011.0
20260503211555 61 297 3.5 13.9 0.00 0.00 0.00 31 1011.1
20260503210053 60 310 8.7 17.4 0.00 0.00 0.00 30 1011.0
20260503204552 60 318 6.1 19.1 0.00 0.00 0.00 31 1011.0
20260503203058 60 10 6.1 15.6 0.00 0.00 0.00 31 1011.0
20260503201552 59 265 6.1 20.9 0.00 0.00 0.00 30 1011.1